Weather History for 12860 - March, 2014

Change the Weather History Date:

Saturday, March 8, 2014

  Actual Average Record
Temperature  
Mean Temperature 49 °F -  
Max Temperature 61 °F - - ()
Min Temperature 37 °F - - ()
Degree Days  
Heating Degree Days 16    
Moisture  
Dew Point 37 °F    
Average Humidity 67    
Maximum Humidity 100    
Minimum Humidity 29    
Precipitation  
Precipitation 0.00 in - - ()
Sea Level Pressure  
Sea Level Pressure 30.36 in    
Wind  
Wind Speed 6 mph ()    
Max Wind Speed 16 mph    
Max Gust Speed -    
Visibility 10.3 miles    
Events Rain    
T = Trace of Precipitation, MM = Missing Value Source: Averaged Metar Reports

Daily Weather History Graph

Daily Weather History Graph

Search for Another Location

Airport or City:

Trip Planner

Search our weather history database for the weather conditions in past years. The results will help you decide how hot, cold, wet, or windy it might be!

Date:

Astronomy

Mar. 08, 2014 Rise Set
Actual Time 6:06 AM CET 5:34 PM CET
Civil Twilight 5:35 AM CET 6:04 PM CET
Nautical Twilight 5:00 AM CET 6:40 PM CET
Astronomical Twilight 4:24 AM CET 7:15 PM CET
Moon 10:07 AM CET (3/8) 12:40 AM CET (3/8)
Length of Visible Light 12h 28m
Length of Day
11h 28m
Waxing Crescent, 49% of the Moon is Illuminated
Mar 8
Waxing Crescent
Mar 8
First Quarter
Mar 16
Full
Mar 24
Last Quarter
Mar 30
New

Hourly Weather History & Observations

Time (CET) Temp. Windchill Dew Point Humidity Pressure Visibility Wind Dir Wind Speed Gust Speed Precip Events Conditions
12:00 AM 44 °F - 38 °F 71% 30.32 in 12 mi North 4.5 mph - -   Overcast
12:15 AM 42.8 °F 40.2 °F 37.4 °F 81% 30.30 in - North 4.5 mph - N/A   Clear
12:45 AM 42.8 °F 38.7 °F 39.2 °F 87% 30.30 in - North 6.7 mph - N/A   Clear
1:00 AM 40 °F - 34 °F 72% 30.47 in 7 mi NE 15.7 mph - -  
1:15 AM 42.8 °F 40.2 °F 39.2 °F 87% 30.30 in - North 4.5 mph - N/A   Clear
1:45 AM 42.8 °F 40.2 °F 39.2 °F 87% 30.30 in - North 4.5 mph - N/A   Clear
1:53 AM 42.8 °F 40.2 °F 39.2 °F 87% 30.30 in 6.2 mi North 4.5 mph - N/A Rain Light Rain
2:00 AM 42 °F - 38 °F 83% 30.32 in 12 mi North 4.5 mph - -   Overcast
2:15 AM 41.0 °F 36.5 °F 37.4 °F 87% 30.30 in 6.2 mi North 6.7 mph - N/A Rain Light Rain
2:45 AM 39.2 °F 36.0 °F 37.4 °F 93% 30.30 in - North 4.5 mph - N/A   Clear
3:00 AM 40 °F - 37 °F 85% 30.32 in 12 mi North 4.5 mph - - Rain Light Rain
3:15 AM 39.2 °F 34.4 °F 35.6 °F 87% 30.30 in - North 6.7 mph - N/A   Clear
3:45 AM 37.4 °F - 35.6 °F 93% 30.30 in - Calm Calm - N/A   Clear
4:00 AM 38 °F - 36 °F 87% 30.33 in 9 mi Calm Calm - -   Partly Cloudy
4:15 AM 37.4 °F 33.9 °F 37.4 °F 100% 30.30 in - North 4.5 mph - N/A   Clear
4:45 AM 37.4 °F - 35.6 °F 93% 30.30 in - North 2.2 mph - N/A   Clear
5:00 AM 38 °F - 36 °F 90% 30.34 in 9 mi North 2.2 mph - -   Mostly Cloudy
5:15 AM 39.2 °F 36.0 °F 37.4 °F 93% 30.33 in - North 4.5 mph - N/A   Clear
5:45 AM - - - N/A% - 6.2 mi North 4.5 mph - N/A   Clear
6:00 AM 40 °F - 38 °F 88% 30.35 in 9 mi NNW 4.5 mph - -   Mostly Cloudy
6:15 AM 39.2 °F 36.0 °F 37.4 °F 93% 30.33 in - NNW 4.5 mph - N/A   Clear
6:45 AM 41.0 °F 38.1 °F 39.2 °F 93% 30.33 in - North 4.5 mph - N/A   Clear
7:00 AM 41 °F - 39 °F 88% 30.37 in 6 mi North 4.5 mph - -   Partly Cloudy
7:15 AM 42.8 °F - 39.2 °F 87% 30.36 in - North 2.2 mph - N/A   Clear
7:45 AM 44.6 °F - 41.0 °F 87% 30.36 in - North 2.2 mph - N/A   Clear
8:00 AM 44 °F - 40 °F 82% 30.39 in 6 mi North 2.2 mph - -   Partly Cloudy
8:15 AM 46.4 °F 44.4 °F 39.2 °F 76% 30.39 in - North 4.5 mph - N/A   Clear
8:45 AM - - - N/A% - 6.2 mi North 4.5 mph - N/A   Clear
9:00 AM 47 °F - 39 °F 65% 30.40 in 9 mi North 6.7 mph - -   Scattered Clouds
9:15 AM 50.0 °F - 39.2 °F 66% 30.39 in - North 6.7 mph - N/A   Clear
9:45 AM 51.8 °F - 37.4 °F 58% 30.39 in - North 8.9 mph - N/A   Clear
10:00 AM 51 °F - 38 °F 51% 30.40 in 9 mi North 8.9 mph - -   Scattered Clouds
10:15 AM 51.8 °F - 37.4 °F 58% 30.36 in - North 8.9 mph - N/A   Clear
10:45 AM 53.6 °F - 37.4 °F 54% 30.36 in - North 8.9 mph - N/A   Clear
11:00 AM 53 °F - 38 °F 46% 30.38 in 9 mi North 8.9 mph - -   Clear
11:15 AM 55.4 °F - 37.4 °F 51% 30.36 in - North 8.9 mph - N/A   Clear
11:45 AM - - - N/A% - 6.2 mi North 8.9 mph - N/A   Clear
12:00 PM 56 °F - 38 °F 39% 30.38 in 12 mi North 8.9 mph - -   Scattered Clouds
12:15 PM 57.2 °F - 37.4 °F 48% 30.36 in 6.2 mi North 13.4 mph - N/A   Partly Cloudy
12:45 PM 59.0 °F - 39.2 °F 48% 30.36 in 6.2 mi North 11.2 mph - N/A   Partly Cloudy
1:00 PM 58 °F - 40 °F 39% 30.37 in 12 mi North 11.2 mph - -   Scattered Clouds
1:15 PM 59.0 °F - 39.2 °F 48% 30.36 in 6.2 mi North 11.2 mph - N/A   Partly Cloudy
1:45 PM 59.0 °F - 39.2 °F 48% 30.33 in 6.2 mi North 11.2 mph - N/A   Partly Cloudy
2:00 PM 60 °F - 38 °F 33% 30.36 in 12 mi North 11.2 mph - -   Scattered Clouds
2:15 PM 60.8 °F - 37.4 °F 42% 30.36 in - North 8.9 mph - N/A   Clear
2:45 PM - - - N/A% - 6.2 mi North 8.9 mph - N/A   Clear
3:00 PM 60 °F - 36 °F 29% 30.35 in 19 mi North 8.9 mph - -   Scattered Clouds
3:15 PM 59.0 °F - 37.4 °F 45% 30.33 in - NNE 11.2 mph - N/A   Clear
3:45 PM 59.0 °F - 37.4 °F 45% 30.33 in - NNE 11.2 mph - N/A   Clear
4:00 PM 60 °F - 38 °F 31% 30.35 in 19 mi NNE 11.2 mph - -   Scattered Clouds
4:15 PM 59.0 °F - 37.4 °F 45% 30.33 in - NNW 11.2 mph - N/A   Clear
4:45 PM 59.0 °F - 37.4 °F 45% 30.33 in - NNW 8.9 mph - N/A   Clear
5:00 PM 59 °F - 37 °F 32% 30.35 in 19 mi NNW 8.9 mph - -   Scattered Clouds
5:15 PM 57.2 °F - 37.4 °F 48% 30.36 in - North 6.7 mph - N/A   Clear
5:45 PM - - - N/A% - - NE 11.2 mph - N/A   Clear
6:00 PM 56 °F - 37 °F 37% 30.37 in 19 mi NNW 4.5 mph - -   Clear
6:15 PM 53.6 °F - 37.4 °F 54% 30.36 in - North 4.5 mph - N/A   Clear
6:45 PM 53.6 °F - 37.4 °F 54% 30.36 in - North 6.7 mph - N/A   Clear
7:00 PM 53 °F - 38 °F 44% 30.38 in 19 mi North 6.7 mph - -   Clear
7:15 PM 51.8 °F - 37.4 °F 58% 30.36 in - North 6.7 mph - N/A   Clear
7:45 PM 48.2 °F - 35.6 °F 62% 30.36 in - NNE 4.5 mph - N/A   Clear
8:00 PM 48 °F - 36 °F 54% 30.39 in 19 mi NNE 4.5 mph - -  
8:15 PM 46.4 °F 43.0 °F 35.6 °F 66% 30.39 in - NE 6.7 mph - N/A   Clear
8:45 PM 46.4 °F 43.0 °F 35.6 °F 66% 30.39 in - ENE 6.7 mph - N/A   Clear
9:00 PM 46 °F - 36 °F 58% 30.41 in 19 mi ENE 6.7 mph - -  
9:15 PM 42.8 °F 38.7 °F 35.6 °F 76% 30.39 in - NNE 6.7 mph - N/A   Clear
9:45 PM 42.8 °F 36.7 °F 37.4 °F 81% 30.39 in - NE 11.2 mph - N/A   Clear
10:00 PM 43 °F - 37 °F 71% 30.42 in 12 mi NE 11.2 mph - -  
10:15 PM 41.0 °F 35.4 °F 35.6 °F 81% 30.42 in - ENE 8.9 mph - N/A   Clear
10:45 PM 39.2 °F 33.1 °F 35.6 °F 87% 30.42 in - ENE 8.9 mph - N/A   Clear
11:00 PM 40 °F - 36 °F 80% 30.44 in 9 mi ENE 8.9 mph - -  
11:15 PM 39.2 °F 32.2 °F 33.8 °F 81% 30.42 in - NE 11.2 mph - N/A   Clear
11:45 PM - - - N/A% - 0.6 mi North - - N/A   Unknown